Des Moines International Airport
KDSM : now visible

Airfield :











YOU CAN JOIN US ON...

 
LOGIN :

Register | Disclaimer

   EN    FR    IT 

 









Legend :    VFR   Marginal VFR   IFR   Intensive IFR   Very Intensive IFR
Visi :
Ceiling :
>= 8 km
>= 3000ft
5 to 8 km
1000 to 3000 ft
1500m to 5 km
500 to 1000 ft
800 to 1500m
200 to 500 ft
< 800m
< 200 ft
Symbols :   Thunderstorms  Fog  Heavy snow  Heavy precipitations  Wind > 20 kt






- Airport Elevation : 958 ft
- IATA code : DSM


KDSM - Des Moines International

CURRENT METAR :
  • 261854Z 27011KT 10SM FEW025 FEW250 SCT300 09/02 A2996 RMK AO2 SLP151 T00890017

EXPIRED METARs :
  • 261754Z 26012KT 10SM FEW020 FEW250 08/01 A2997 RMK AO2 SLP153 T00780011 10078 20000 50001

TAF KDSM
Valid from the 26 at 18:00 until the 27 at 18:00 UTC


261729Z 2618/2718 24011KT P6SM SKC
FM262200 31007KT P6SM SCT200
KZMP FIR / North America



MET'MAP, your aeronautical weather chart ! - Copyright ORBIFLY December 2007 - Disclaimer

ORBIFLY MET'MAP TEAM :

Programming & Development : Alexandra Zaïnal
Concept & original design : Baudouin d'Aumeries
Assistance for programming : Marc-Olivier Méhu
Technical & hardware support : Manuel Goepfert

Contact : metmap@orbifly.com




SOURCES & CREDITS :

   NOAA       Earth
Advisory